Location: Unspecified
(42.9300°N, 71.1866°W)
Time: 12:33:56
(UTC-04:00)

GENESIS II - Visible Passes

Search period start: 20 April 2018 00:00
Search period end: 30 April 2018 00:00
Orbit: 509 x 523 km, 64.5° (Epoch: 20 April)

Date Brightness Start Highest point End Pass type
(mag) Time Alt. Az. Time Alt. Az. Time Alt. Az.
20 Apr 7.4 00:01:11 10° NW 00:01:24 11° NW 00:01:24 11° NW visible
20 Apr 6.5 22:08:56 10° N 22:11:14 16° NE 22:11:14 16° NE visible
20 Apr 7.2 23:45:37 10° NW 23:46:13 14° NW 23:46:13 14° NW visible
21 Apr 6.4 21:53:19 10° N 21:55:53 16° NE 21:56:04 16° NE visible
21 Apr 7.0 23:30:03 10° NW 23:31:03 17° NW 23:31:03 17° NW visible
22 Apr 6.3 21:37:43 10° N 21:40:20 17° NE 21:40:56 16° NE visible
22 Apr 6.6 23:14:29 10° NW 23:15:55 21° NW 23:15:55 21° NW visible
23 Apr 6.2 21:22:07 10° N 21:24:47 17° NE 21:25:50 16° ENE visible
23 Apr 6.3 22:58:55 10° NW 23:00:49 26° NW 23:00:49 26° NW visible
24 Apr 6.2 21:06:30 10° N 21:09:13 17° NE 21:10:45 14° ENE visible
24 Apr 5.8 22:43:21 10° NW 22:45:45 34° WNW 22:45:45 34° WNW visible
25 Apr 6.2 20:50:54 10° N 20:53:39 18° NE 20:55:43 13° ENE visible
25 Apr 5.2 22:27:47 10° NW 22:30:43 43° WNW 22:30:43 43° WNW visible
26 Apr 6.2 20:35:18 10° N 20:38:04 18° NE 20:40:43 11° E visible
26 Apr 4.8 22:12:12 10° NW 22:15:43 52° W 22:15:43 52° W visible
27 Apr 6.1 20:19:41 10° N 20:22:31 18° NE 20:25:20 10° E visible
27 Apr 4.6 21:56:38 10° NW 22:00:30 53° WSW 22:00:47 51° SW visible
28 Apr 4.7 21:41:04 10° NW 21:44:55 51° WSW 21:45:53 40° SSW visible
29 Apr 4.8 21:25:30 10° NW 21:29:20 50° WSW 21:31:02 28° S visible
